Regional Weather Roundup
Issued by NWS Lake Charles, LA

Home | Current Version | Previous Version | Text Only | Print | Product List | Glossary On
Versions: 1 2 3 4 5 6 7 8 9 10 11 12 13 14 15 16 17 18 19 20 21 22 23 24 25 26 27
000
ASUS44 KLCH 232011
RWRLCH
REGIONAL WEATHER ROUNDUP
NATIONAL WEATHER SERVICE LAKE CHARLES LA
300 PM CDT SAT SEP 23 2017

Note: "fair" indicates few or no clouds below 12,000 feet with no
significant weather and/or obstructions to visibility.


ACROSS SOUTHEAST TEXAS

CITY           SKY/WX    TMP DP  RH WIND       PRES   REMARKS
BEAUMONT       PTSUNNY   81  70  69 SE13      29.90F
BEAUMONT CITY  MOCLDY    86  69  58 NE3       29.91F
ORANGE         MOCLDY    82  75  79 SW9       29.92F
JASPER         PTSUNNY   91  70  51 SE3       29.93F
$$

ACROSS CENTRAL LOUISIANA

CITY           SKY/WX    TMP DP  RH WIND       PRES   REMARKS
LEESVILLE      MOSUNNY   90  69  49 E8        29.90F
FULLERTON      MOCLDY    89  70  53 VRB3      29.89F
ALEXANDRIA INT MOSUNNY   93  64  38 VRB5      29.89F
ESLER FIELD    NOT AVBL
DERIDDER       FAIR      91  66  43 SE5       29.93F
OAKDALE        CLEAR     90  70  51 CALM      29.91F
OPELOUSAS      FAIR      91  67  45 NE3       29.91F
$$

ACROSS SOUTHWEST AND SOUTH CENTRAL LOUISIANA

CITY           SKY/WX    TMP DP  RH WIND       PRES   REMARKS
SULPHUR        PTCLDY    92  68  45 SE10      29.91F
LAKE CHARLES   NOT AVBL
CHENNAULT INT  NOT AVBL
CAMERON PHI      N/A     86  75  70 SE9       29.91S
DEQUINCY       MOCLDY    89  68  49 E6        29.91F
JENNINGS       MOCLDY    90  69  49 E10G22    29.90F
LAFAYETTE      NOT AVBL
NEW IBERIA     SUNNY     91  66  43 VRB3      29.93
ABBEVILLE      FAIR      90  72  55 CALM      29.90F
PATTERSON      NOT AVBL
SALT POINT       N/A     89  72  56 VRB3      29.89F
$$

SELECTED SITES ACROSS THE REGION

CITY           SKY/WX    TMP DP  RH WIND       PRES   REMARKS
HOUSTON BUSH   MOSUNNY   91  70  49 SE8       29.89F
HOUSTON HOBBY  MOSUNNY   90  71  53 SE12      29.88F
GALVESTON      NOT AVBL
COLLEGE STAT   NOT AVBL
CONROE         NOT AVBL
HUNTSVILLE     NOT AVBL
LUFKIN         NOT AVBL
SHREVEPORT     MOSUNNY   93  70  46 E12       29.91F
MONROE         PTSUNNY   92  69  47 NE6       29.93F
NATCHEZ MS     PTSUNNY   91  69  48 E6        29.94F
BATON ROUGE    MOSUNNY   92  68  45 NE9       29.91F
N.O. INTL ARPT MOSUNNY   90  70  51 NE10G21   29.91F
SLIDELL        NOT AVBL
$$

MARINE REPORTS

STATION/POSITION TIME  SKY/WX   TEMP    WIND        PRES    VSBY
                                AIR SEA DIR/SP/G
                 (UTC)          (F)     (DEG/KT/KT) (MB)    (MI)
BUOY 30 S HIGH I 1850            82 84   90/ 10/ 12 1013.0
WVE H/P(F/S)=  2/ 5

SEA RIM ST PARK  1900            85     130/  7/ 11 1013.7F
PORT ARTHUR      1948            78 83  250/  3/  5 1013.1F
SABINE PASS N    1948            83 85  110/  8/ 11 1014.4F
TEXAS POINT      NOT AVBL
CALCASIEU PASS   1948            85 85  170/  5/  9 1012.1F
LK CHARLES BEACH 1948            91 81              1012.1F
MARSH ISLAND     1900            83                   N/A
FRESH WATER LOCK 1948            85 87  130/  9/ 12 1012.9F
AMERADA PASS     1948            87 83   90/  4/  7 1012.5F
$$




USA.gov is the U.S. government's official web portal to all federal, state and local government web resources and services.